NIMIQ 4

Last updated on Mon Oct 27 2025 00:02:46 GMT+0000 (Coordinated Universal Time)

1 33373U 08044A 25299.52056203 -.00000209 00000+0 00000+0 0 9995 2 33373 0.0083 256.6781 0001732 331.6930 272.2052 1.00271423 62643
UTC large
Height (km)
Speed (km/s)
/
Latitude / Longitude
Inclination (degrees)
Orbital Period (minutes)
Azimuth
Elevation
Range (km)
Doppler Factor

Next 0 passes for location: London (51.5072 / 0.1276)

Sorry there are no passes over London.